DL1NER Weather Reports


time (UTC)temp
F
wind
direction
speed
knots
gust
knots
rain 1hr
in
rain 24hr
in
rain mn
in
humidity
%
barometer
mb
20260509171013 69 74 1.7 3.5 0.00 0.00 0.00 46 1015.1
20260509170013 70 78 2.6 5.2 0.00 0.00 0.00 48 1015.0
20260509165013 70 17 2.6 6.1 0.00 0.00 0.00 46 1015.0
20260509164013 70 82 3.5 6.1 0.00 0.00 0.00 48 1015.0
20260509162013 71 83 3.5 7.8 0.00 0.00 0.00 46 1015.3
20260509160013 71 20 0.9 4.3 0.00 0.00 0.00 46 1015.5
20260509154013 71 90 1.7 4.3 0.00 0.00 0.00 45 1015.5
20260509153013 72 348 2.6 6.1 0.00 0.00 0.00 43 1015.6
20260509152013 72 33 3.5 8.7 0.00 0.00 0.00 43 1015.7
20260509151013 73 38 2.6 8.7 0.00 0.00 0.00 44 1015.7
20260509150013 73 343 1.7 6.1 0.00 0.00 0.00 43 1015.9
20260509144014 72 78 3.5 7.0 0.00 0.00 0.00 47 1016.1
20260509143012 71 5 2.6 7.0 0.00 0.00 0.00 47 1016.2
20260509142013 70 350 2.6 5.2 0.00 0.00 0.00 46 1016.3
20260509141013 70 355 2.6 5.2 0.00 0.00 0.00 47 1016.5
20260509140012 71 86 1.7 5.2 0.00 0.00 0.00 45 1016.6
20260509135012 73 75 1.7 6.1 0.00 0.00 0.00 43 1016.8
20260509134012 72 119 1.7 5.2 0.00 0.00 0.00 43 1016.8
20260509133012 72 118 1.7 7.0 0.00 0.00 0.00 46 1016.9
20260509132012 72 114 2.6 7.8 0.00 0.00 0.00 46 1017.0
20260509131013 72 83 2.6 7.8 0.00 0.00 0.00 45 1017.1
20260509130012 71 80 1.7 6.1 0.00 0.00 0.00 49 1017.3
20260509125012 72 96 1.7 6.1 0.00 0.00 0.00 45 1017.4
20260509123012 70 176 1.7 6.1 0.00 0.00 0.00 50 1017.6
20260509122012 70 96 0.9 2.6 0.00 0.00 0.00 50 1017.7
20260509121012 70 24 1.7 3.5 0.00 0.00 0.00 51 1017.7
20260509120012 70 47 0.9 4.3 0.00 0.00 0.00 50 1017.8
20260509115012 69 344 1.7 4.3 0.00 0.00 0.00 50 1017.8
20260509114012 69 109 1.7 3.5 0.00 0.00 0.00 49 1017.9
20260509113012 69 40 1.7 5.2 0.00 0.00 0.00 49 1018.0
20260509112012 69 138 1.7 4.3 0.00 0.00 0.00 49 1018.1
20260509110012 67 80 1.7 6.1 0.00 0.00 0.00 52 1018.5
20260509105012 66 102 2.6 8.7 0.00 0.00 0.00 51 1018.5
20260509104012 66 45 0.9 6.1 0.00 0.00 0.00 52 1018.6
20260509103011 66 98 2.6 6.1 0.00 0.00 0.00 52 1018.7
20260509102011 67 39 1.7 7.0 0.00 0.00 0.00 51 1018.7
20260509101011 66 96 1.7 4.3 0.00 0.00 0.00 51 1018.8
20260509100012 65 44 2.6 6.1 0.00 0.00 0.00 52 1018.7
20260509094011 64 86 1.7 6.1 0.00 0.00 0.00 58 1018.9
20260509092012 64 85 2.6 4.3 0.00 0.00 0.00 62 1019.0
20260509091011 63 153 0.9 4.3 0.00 0.00 0.00 66 1019.2
20260509090012 62 157 1.7 5.2 0.00 0.00 0.00 68 1019.3
20260509085011 61 116 0.9 3.5 0.00 0.00 0.00 69 1019.3
20260509084012 60 117 2.6 5.2 0.00 0.00 0.00 70 1019.4
20260509083012 59 121 1.7 7.0 0.00 0.00 0.00 73 1019.4
20260509082011 58 92 1.7 6.1 0.00 0.00 0.00 74 1019.5
20260509075011 56 92 2.6 6.1 0.00 0.00 0.00 77 1019.6
20260509073011 54 109 1.7 5.2 0.00 0.00 0.00 81 1019.6
20260509072011 53 86 1.7 4.3 0.00 0.00 0.00 82 1019.5
20260509071010 52 88 2.6 6.1 0.00 0.00 0.00 83 1019.6
20260509070011 51 79 2.6 7.0 0.00 0.00 0.00 85 1019.8
20260509065010 51 63 1.7 5.2 0.00 0.00 0.00 87 1019.7
20260509064010 49 84 1.7 3.5 0.00 0.00 0.00 89 1019.7
20260509063010 49 89 0.0 2.6 0.00 0.00 0.00 90 1019.7
20260509061011 47 89 0.9 1.7 0.00 0.00 0.00 91 1019.8
20260509060010 47 89 0.9 2.6 0.00 0.00 0.00 92 1019.7
20260509055010 46 89 0.0 0.9 0.00 0.00 0.00 92 1019.6
20260509054010 46 89 0.0 1.7 0.00 0.00 0.00 92 1019.7
20260509053010 45 89 0.0 0.0 0.00 0.00 0.00 92 1019.5
20260509052010 44 89 0.9 2.6 0.00 0.00 0.00 92 1019.3
20260509050010 43 90 0.0 0.0 0.00 0.00 0.00 92 1019.2
20260509045010 42 90 0.0 0.0 0.00 0.00 0.00 92 1019.2
20260509044010 42 90 0.0 0.0 0.00 0.00 0.00 92 1019.1
20260509043010 42 90 0.0 0.0 0.00 0.00 0.00 91 1018.9
20260509041010 42 90 0.0 0.0 0.00 0.00 0.00 91 1018.8
20260509040010 42 90 0.0 0.0 0.00 0.00 0.00 91 1018.9
20260509035010 42 90 0.0 2.6 0.00 0.00 0.00 91 1019.1
20260509033010 42 88 0.9 1.7 0.00 0.00 0.00 91 1019.0
20260509032010 42 88 0.9 1.7 0.00 0.00 0.00 90 1018.9
20260509031009 42 88 0.0 0.9 0.00 0.00 0.00 90 1018.8
20260509030010 42 88 0.0 0.9 0.00 0.00 0.00 90 1018.8
20260509025009 42 88 0.0 0.9 0.00 0.00 0.00 90 1018.8
20260509024010 42 88 0.0 0.9 0.00 0.00 0.00 90 1018.8
20260509023010 42 88 0.0 1.7 0.00 0.00 0.00 90 1018.9
20260509022010 42 88 0.0 0.0 0.00 0.00 0.00 89 1018.9
20260509021009 43 88 0.0 0.0 0.00 0.00 0.00 89 1018.8
20260509020010 43 88 0.0 0.0 0.00 0.00 0.00 89 1018.9
20260509015010 43 88 0.0 0.0 0.00 0.00 0.00 89 1018.8
20260509014014 43 88 0.0 0.0 0.00 0.00 0.00 89 1018.7
20260509013013 43 88 0.0 0.0 0.00 0.00 0.00 89 1018.7
20260509012013 43 88 0.0 0.0 0.00 0.00 0.00 89 1018.7
20260509011013 43 88 0.0 0.0 0.00 0.00 0.00 87 1018.8
20260509010013 43 88 0.0 0.0 0.00 0.00 0.00 86 1018.8
20260509005013 44 88 0.0 0.0 0.00 0.00 0.00 85 1018.8
20260509004013 44 88 0.0 0.0 0.00 0.00 0.00 85 1018.7
20260509003013 44 88 0.0 0.0 0.00 0.00 0.00 85 1018.9
20260509002013 44 88 0.0 0.0 0.00 0.00 0.00 85 1018.8
20260509001013 44 88 0.0 0.0 0.00 0.00 0.00 85 1018.8
20260509000013 44 88 0.0 0.0 0.00 0.00 0.00 83 1018.8
20260508235013 44 88 0.0 0.0 0.00 0.00 0.00 80 1018.6
20260508233013 45 88 0.0 0.0 0.00 0.00 0.00 79 1018.9
20260508232012 45 88 0.0 0.0 0.00 0.00 0.00 78 1018.9
20260508231013 46 88 0.0 0.0 0.00 0.00 0.00 77 1019.0
20260508230012 46 88 0.0 0.0 0.00 0.00 0.00 77 1019.0
20260508225012 46 88 0.0 0.0 0.00 0.00 0.00 75 1019.0
20260508224012 47 88 0.0 0.0 0.00 0.00 0.00 75 1019.0
20260508223012 47 88 0.0 0.0 0.00 0.00 0.00 74 1019.1
20260508222012 47 88 0.0 1.7 0.00 0.00 0.00 74 1019.0
20260508221012 47 88 0.0 1.7 0.00 0.00 0.00 73 1019.0
20260508220012 48 88 0.0 0.0 0.00 0.00 0.00 72 1019.1
20260508215012 48 88 0.0 1.7 0.00 0.00 0.00 72 1018.9
20260508214012 49 88 0.9 1.7 0.00 0.00 0.00 71 1018.9
20260508213012 49 88 0.9 2.6 0.00 0.00 0.00 71 1019.0
20260508212012 49 88 0.0 1.7 0.00 0.00 0.00 71 1018.9
20260508211012 49 88 0.0 1.7 0.00 0.00 0.00 70 1018.9
20260508205012 50 88 0.0 1.7 0.00 0.00 0.00 69 1018.8
20260508204012 51 88 0.0 1.7 0.00 0.00 0.00 68 1018.8
20260508203011 51 88 0.0 0.9 0.00 0.00 0.00 67 1018.7
20260508201012 52 89 0.9 2.6 0.00 0.00 0.00 66 1018.6
20260508200011 53 90 0.9 2.6 0.00 0.00 0.00 65 1018.6
20260508195011 53 17 0.9 2.6 0.00 0.00 0.00 64 1018.6
20260508194011 54 47 0.0 2.6 0.00 0.00 0.00 63 1018.5
20260508193022 54 48 0.0 2.6 0.00 0.00 0.00 61 1018.4
20260508192011 55 48 0.9 2.6 0.00 0.00 0.00 60 1018.3
20260508191011 56 29 1.7 6.1 0.00 0.00 0.00 58 1018.2
20260508190011 56 56 1.7 6.1 0.00 0.00 0.00 58 1017.9
20260508185011 57 31 1.7 7.0 0.00 0.00 0.00 57 1017.8
20260508184011 58 32 2.6 5.2 0.00 0.00 0.00 56 1017.8
20260508183012 58 46 2.6 6.1 0.00 0.00 0.00 55 1017.5
20260508182011 59 33 2.6 8.7 0.00 0.00 0.00 54 1017.5
20260508181011 59 49 3.5 7.8 0.00 0.00 0.00 54 1017.4
20260508180011 60 42 2.6 7.0 0.00 0.00 0.00 53 1017.2
20260508175011 60 42 2.6 7.0 0.00 0.00 0.00 53 1017.2
20260508174011 60 65 3.5 6.1 0.00 0.00 0.00 53 1017.2
20260508173011 61 344 2.6 6.1 0.00 0.00 0.00 53 1017.1
20260508172010 61 326 2.6 7.0 0.00 0.00 0.00 52 1017.2